GW1976 Weather Reports


Display with metric or nautical units.
time (UTC)temp
F
wind
direction
speed
MPH
gust
MPH
rain 1hr
in
rain 24hr
in
rain mn
in
humidity
%
barometer
mb
20260504081535 42 74 2.0 8.0 0.00 0.00 0.00 62 1011.0
20260504044531 45 22 1.0 3.0 0.00 0.00 0.00 59 1010.8
20260504043037 45 34 1.0 3.0 0.00 0.00 0.00 59 1010.8
20260504041534 45 0 1.0 3.0 0.00 0.00 0.00 59 1010.8
20260504040058 45 46 1.0 3.0 0.00 0.00 0.00 59 1010.9
20260504034532 45 9 0.0 3.0 0.00 0.00 0.00 58 1010.9
20260504033035 45 22 1.0 2.0 0.00 0.00 0.00 58 1010.8
20260504031537 45 113 1.0 3.0 0.00 0.00 0.00 58 1011.0
20260504030034 45 131 1.0 2.0 0.00 0.00 0.00 58 1010.8
20260504024536 45 105 1.0 2.0 0.00 0.00 0.00 57 1011.2
20260504023031 45 126 1.0 4.0 0.00 0.00 0.00 57 1011.2
20260504021536 46 111 2.0 3.0 0.00 0.00 0.00 56 1011.1
20260504020032 46 126 2.0 4.0 0.00 0.00 0.00 55 1010.8
20260504014537 46 103 2.0 6.0 0.00 0.00 0.00 54 1010.9
20260504013034 46 86 3.0 6.0 0.00 0.00 0.00 53 1010.8
20260504011538 46 86 2.0 5.0 0.00 0.00 0.00 54 1010.7
20260504010037 46 78 1.0 2.0 0.00 0.00 0.00 54 1010.5
20260504004542 47 0 1.0 2.0 0.00 0.00 0.00 54 1010.4
20260504003047 47 93 1.0 2.0 0.00 0.00 0.00 53 1010.1
20260504001537 47 0 1.0 3.0 0.00 0.00 0.00 53 1010.0
20260504000037 47 19 1.0 3.0 0.00 0.00 0.00 52 1009.9
20260503234536 48 120 2.0 4.0 0.00 0.00 0.00 53 1010.1
20260503233031 48 126 2.0 6.0 0.00 0.00 0.00 52 1009.9
20260503231532 48 144 3.0 8.0 0.00 0.00 0.00 51 1010.0
20260503230040 49 110 1.0 6.0 0.00 0.00 0.00 51 1009.9
20260503224538 49 108 3.0 12.0 0.00 0.00 0.00 51 1009.9
20260503223036 50 68 5.0 18.0 0.00 0.00 0.00 48 1009.7
20260503221530 51 148 3.0 7.0 0.00 0.00 0.00 50 1009.9
20260503220034 50 108 2.0 11.0 0.00 0.00 0.00 49 1010.0
20260503214530 48 50 4.0 13.0 0.00 0.00 0.00 50 1009.9
20260503213032 49 121 5.0 12.0 0.00 0.00 0.00 48 1009.7
20260503211531 50 108 4.0 10.0 0.00 0.00 0.00 46 1009.5
20260503210031 49 105 4.0 14.0 0.00 0.00 0.00 43 1009.5
20260503204534 50 135 5.0 12.0 0.00 0.00 0.00 44 1009.5
20260503203031 51 122 6.0 15.0 0.00 0.00 0.00 41 1009.4
20260503201531 53 128 4.0 13.0 0.00 0.00 0.00 40 1009.5
20260503200032 50 93 4.0 13.0 0.00 0.00 0.00 43 1009.7
20260503194534 50 142 7.0 14.0 0.00 0.00 0.00 42 1009.6
20260503193041 51 134 3.0 13.0 0.00 0.00 0.00 38 1009.9
20260503191543 52 36 5.0 11.0 0.00 0.00 0.00 36 1009.9
20260503190033 51 111 6.0 13.0 0.00 0.00 0.00 39 1010.2
20260503184534 51 250 5.0 11.0 0.00 0.00 0.00 43 1010.4
20260503183031 50 106 4.0 11.0 0.00 0.00 0.00 42 1010.5
20260503181531 50 130 5.0 18.0 0.00 0.00 0.00 40 1010.6
20260503180032 49 140 5.0 14.0 0.00 0.00 0.00 39 1010.9
20260503174536 47 130 6.0 10.0 0.00 0.00 0.00 41 1011.1
20260503173032 48 121 7.0 13.0 0.00 0.00 0.00 42 1011.1
20260503171532 46 140 4.0 15.0 0.00 0.00 0.00 43 1011.0